[[{"header":{"parameterUnit":"m.s-1","parameterCategory":1,"la1":30.2992,"la2":30.254,"lo1":-89.0895,"lo2":-89.0443,"dy":0.0025,"dx":0.0025,"nx":19,"ny":19,"refTime":"2026-04-24T03:00:00:Z","depth":0,"parameterNumber":2,"parameterNumberName":"U-component_of_WINDS"},"data":[0,0,0,1.7448,1.745,1.7556,1.7556,1.7706,1.7707,0,0,0,0,0,0,0,0,0,0,0,1.7425,1.7426,1.7448,1.7451,1.7556,1.7556,1.7706,1.7707,0,0,0,0,0,0,0,0,0,0,0,1.7424,1.7426,1.7427,1.7451,1.7556,1.7556,1.7705,1.7621,0,0,0,0,0,0,0,0,0,0,1.7516,1.7503,1.7426,1.7428,1.7452,1.7556,1.7557,1.7617,1.7626,1.7664,0,1.7699,0,1.7705,1.7718,1.7719,0,0,0,1.7445,1.7495,1.7515,1.7428,1.7453,1.7556,1.7507,1.7622,1.7633,1.7677,1.7701,1.7706,1.7708,1.7719,1.772,1.7952,1.7954,0,0,1.7439,1.7449,1.7508,1.7523,1.7506,1.7504,1.751,1.7628,1.7656,1.7702,1.7709,1.771,1.772,1.7722,1.7951,1.7953,0,0,0,1.7426,1.7445,1.7463,1.7517,1.7535,1.7507,1.7515,1.7651,1.7655,1.7711,1.7712,1.7721,1.7723,1.795,1.7952,1.8027,0,0,0,1.7423,1.7437,1.746,1.7467,1.7533,1.7594,1.7535,1.7647,1.766,1.7711,1.7721,1.7725,1.7948,1.7951,1.8022,1.8063,0,0,0,1.7415,1.7437,1.7454,1.7468,1.7513,1.7592,1.7603,1.765,1.7661,1.7719,1.7725,1.7947,1.795,1.8017,1.8055,1.8127,0,0,0,1.7411,1.7522,1.7456,1.758,1.7512,1.7636,1.7602,1.7695,1.7753,1.7722,1.7948,1.7951,1.8016,1.8051,1.8122,1.8191,1.822,0,0,1.7557,1.754,1.7612,1.7555,1.7694,1.762,1.7769,1.7815,1.7812,1.7906,1.7911,1.8024,1.8055,1.8126,1.8374,1.8397,0,0,0,1.7662,1.7714,1.7748,1.7803,1.7837,1.7871,1.7891,1.7907,1.7986,1.7862,1.8067,1.8086,1.8127,1.816,1.818,1.8215,1.7966,1.7966,1.7965,1.7886,1.7873,1.799,1.799,1.8043,1.806,1.8102,1.8127,1.8101,1.8149,1.8179,1.833,1.8369,1.8383,1.842,1.8212,1.8212,1.8212,1.8212,1.81,1.8172,1.8129,1.8229,1.8215,1.8298,1.8318,1.8296,1.8372,1.8308,1.8344,1.8278,1.8409,1.8441,1.8218,1.8217,1.8216,1.8216,1.8215,1.8248,1.828,1.8294,1.8369,1.8427,1.8422,1.8495,1.8479,1.8465,1.85,1.853,1.8528,1.8527,1.8514,1.8515,1.8515,1.8516,1.8516,1.8517,1.8397,1.841,1.8474,1.8516,1.8547,1.8585,1.8599,1.863,1.866,1.8642,1.8642,1.8612,1.8423,1.8377,1.8525,1.8523,1.8522,1.8522,1.8521,1.8624,1.8569,1.8667,1.8698,1.8744,1.8803,1.8778,1.884,1.8862,1.8899,1.8859,1.872,1.8703,1.8688,1.865,1.886,1.886,1.886,1.886,1.8752,1.8739,1.8834,1.8883,1.8929,1.8916,1.9027,1.9037,1.904,1.9053,1.9019,1.8966,1.895,1.8943,1.8922,1.8886,1.9152,1.9152,1.9152,1.8891,1.8881,1.898,1.8979,1.9012,1.9041,1.9145,1.9203,1.9195,1.9164,1.9063,1.905,1.8964,1.8937,1.891,1.8877,1.8812,0,0]},{"header":{"parameterUnit":"m.s-1","parameterCategory":1,"la1":30.2992,"la2":30.254,"lo1":-89.0895,"lo2":-89.0443,"dy":0.0025,"dx":0.0025,"nx":19,"ny":19,"refTime":"2026-04-24T03:00:00:Z","depth":0,"parameterNumber":3,"parameterNumberName":"V-component_of_WINDS"},"data":[0,0,0,4.154,4.1543,4.1674,4.1675,4.1848,4.1849,0,0,0,0,0,0,0,0,0,0,0,4.1507,4.1508,4.154,4.1543,4.1674,4.1675,4.1847,4.1849,0,0,0,0,0,0,0,0,0,0,0,4.1506,4.1508,4.1509,4.1544,4.1674,4.1675,4.1847,4.1746,0,0,0,0,0,0,0,0,0,0,4.1617,4.1592,4.1507,4.1509,4.1545,4.1674,4.1675,4.1741,4.1752,4.1791,0,4.1829,0,4.1842,4.1861,4.1862,0,0,0,4.1539,4.1583,4.1613,4.151,4.1546,4.1674,4.1614,4.1747,4.176,4.1806,4.1831,4.1838,4.1845,4.1863,4.1864,4.2107,4.2108,0,0,4.1532,4.1533,4.1605,4.1622,4.1604,4.161,4.1618,4.1755,4.1781,4.1832,4.1842,4.1848,4.1864,4.1865,4.2106,4.2107,0,0,0,4.1514,4.1528,4.1555,4.1615,4.1638,4.1614,4.1623,4.1775,4.1784,4.1843,4.185,4.1865,4.1867,4.2104,4.2106,4.2174,0,0,0,4.1509,4.1517,4.1552,4.1554,4.1636,4.1709,4.1641,4.1775,4.179,4.1849,4.1865,4.1869,4.2103,4.2105,4.2169,4.2206,0,0,0,4.1496,4.1516,4.1536,4.1553,4.161,4.1707,4.1723,4.1778,4.1795,4.1862,4.1869,4.2102,4.2105,4.2165,4.2199,4.2271,0,0,0,4.1482,4.1594,4.1538,4.1665,4.1609,4.1748,4.1722,4.1826,4.1892,4.1866,4.2103,4.2106,4.2163,4.2194,4.2266,4.2332,4.2359,0,0,4.1624,4.1611,4.1686,4.1639,4.1789,4.1728,4.1887,4.1946,4.195,4.2054,4.206,4.2171,4.2198,4.227,4.2512,4.2534,0,0,0,4.1731,4.1786,4.1825,4.1889,4.1937,4.1981,4.2016,4.2038,4.2126,4.2005,4.2216,4.2232,4.2274,4.2305,4.2324,4.236,4.2121,4.212,4.212,4.1934,4.1935,4.2059,4.2076,4.2137,4.2172,4.2222,4.2256,4.2239,4.2288,4.232,4.2467,4.2504,4.2518,4.2555,4.2354,4.2354,4.2354,4.2355,4.2143,4.2219,4.2193,4.2304,4.2304,4.2396,4.2433,4.2417,4.2503,4.2444,4.248,4.2417,4.2542,4.2575,4.236,4.2359,4.2358,4.2358,4.2357,4.2276,4.2313,4.2338,4.243,4.25,4.2511,4.2595,4.2591,4.2587,4.2624,4.2656,4.2655,4.2654,4.2639,4.264,4.2641,4.2641,4.2641,4.2642,4.2405,4.2431,4.2503,4.2563,4.2603,4.2655,4.269,4.2728,4.277,4.276,4.276,4.2738,4.2554,4.2508,4.265,4.2648,4.2647,4.2646,4.2646,4.2618,4.2569,4.268,4.272,4.279,4.2859,4.2853,4.2932,4.2963,4.3004,4.2973,4.2837,4.2824,4.2809,4.2771,4.2972,4.2972,4.2972,4.2972,4.2731,4.2723,4.2836,4.29,4.2962,4.2967,4.3091,4.3118,4.3138,4.3157,4.3127,4.3076,4.3061,4.3057,4.3037,4.3001,4.3257,4.3257,4.3257,4.2862,4.286,4.2967,4.2988,4.3042,4.3088,4.3203,4.3277,4.3289,4.3268,4.3172,4.316,4.3078,4.3051,4.3029,4.2998,4.2933,0,0]}]]